M I D A S
Marine Information and Data Acquisition System
Tripno 593 of the Zeeleeuw from 2003-09-18 06:17:58 to 2003-09-18 13:10:43
Back to CruiseResearch ActivitiesStationsMapUnderway DataData graphs

EquipmentUnitsComments
TimeDGPSUTC
LatitudeDGPSDM.mWGS84
LongitudeDGPSDM.mWGS84
SpeedMeteo Stationm/sRelative wind speed
DirectionMeteo StationdegRelative wind direction
TemperatureMeteo Stationdeg CelciusAir temperature
PressureMeteo StationPaAtmospheric pressure
HumidityMeteo Station%Relative humidity
Missing or incorrect values are displayed as -999
Metereological data collected by the RV Zeeleeuw from 2003-09-18 06:17:58 to 2003-09-18 13:10:43
Time Latitude Longitude Speed Direction Temperature Pressure Humidity
2003-09-18 06:19 51°13.8 2°55.66 2.1 327 15 101720 68
2003-09-18 06:20 51°13.94 2°55.55 1.1 325 15.1 101720 68
2003-09-18 06:21 51°14.07 2°55.45 1.9 318 15.1 101710 67
2003-09-18 06:22 51°14.21 2°55.33 4 319 15.2 101710 67
2003-09-18 06:23 51°14.34 2°55.12 4.8 38 15.4 101700 66
2003-09-18 06:24 51°14.48 2°54.93 4.5 298 15.6 101700 66
2003-09-18 06:25 51°14.65 2°54.76 5 290 15.9 101700 65
2003-09-18 06:26 51°14.83 2°54.56 4.7 312 16.1 101700 65
2003-09-18 06:27 51°15.03 2°54.36 5.2 306 16.3 101700 64
2003-09-18 06:28 51°15.22 2°54.17 4.6 314 16.3 101700 64
2003-09-18 06:29 51°15.43 2°54 4.8 310 16.4 101700 65
2003-09-18 06:30 51°15.64 2°53.85 4.6 292 16.5 101700 67
2003-09-18 06:31 51°15.85 2°53.68 4.9 291 16.6 101690 66
2003-09-18 06:32 51°16.06 2°53.51 4.3 306 16.7 101700 66
2003-09-18 06:33 51°16.27 2°53.35 5.3 297 16.9 101690 67
2003-09-18 06:34 51°16.48 2°53.2 5.1 288 16.9 101700 66
2003-09-18 06:35 51°16.69 2°53.04 4.7 300 16.9 101690 66
2003-09-18 06:36 51°16.9 2°52.89 5.9 298 17 101690 66
2003-09-18 06:37 51°17.12 2°52.73 4 306 17 101690 66
2003-09-18 06:38 51°17.35 2°52.69 2.4 300 17 101700 66
2003-09-18 06:39 51°17.59 2°52.67 2.2 291 16.9 101700 66
2003-09-18 06:40 51°17.83 2°52.65 2.5 277 17 101700 67
2003-09-18 06:41 51°18.06 2°52.62 3.1 290 17 101700 67
2003-09-18 06:42 51°18.3 2°52.62 0.2 206 17 101690 67
2003-09-18 06:43 51°18.5 2°52.83 6.4 88 17.1 101700 66
2003-09-18 06:44 51°18.59 2°53.17 7.1 77 17.2 101690 68
2003-09-18 06:45 51°18.69 2°53.52 6.7 82 17.1 101690 66
2003-09-18 06:46 51°18.8 2°53.86 6 76 17.1 101700 67
2003-09-18 06:47 51°18.9 2°54.2 5.5 74 17.2 101700 66
2003-09-18 06:48 51°19 2°54.54 7.1 74 17.3 101690 66
2003-09-18 06:49 51°19.1 2°54.89 7 79 17.4 101690 67
2003-09-18 06:50 51°19.21 2°55.23 6.9 79 17.4 101700 66
2003-09-18 06:51 51°19.31 2°55.57 6.7 68 17.5 101700 67
2003-09-18 06:52 51°19.42 2°55.91 7.2 78 17.6 101700 65
2003-09-18 06:53 51°19.52 2°56.25 8.1 90 17.6 101690 65
2003-09-18 06:54 51°19.63 2°56.59 7 68 17.6 101700 65
2003-09-18 06:55 51°19.73 2°56.93 6.4 65 17.6 101700 65
2003-09-18 06:56 51°19.84 2°57.27 5.7 77 17.6 101700 65
2003-09-18 06:57 51°19.94 2°57.62 6 71 17.6 101700 66
2003-09-18 06:58 51°20.05 2°57.96 6.5 70 17.7 101700 67
2003-09-18 06:59 51°20.15 2°58.3 6.1 77 17.6 101700 67
2003-09-18 07:00 51°20.26 2°58.64 6.9 81 17.4 101700 66
2003-09-18 07:01 51°20.34 2°58.99 7.2 78 17.4 101690 67
2003-09-18 07:02 51°20.43 2°59.34 6.9 79 17.4 101690 67
2003-09-18 07:03 51°20.52 2°59.69 6.5 72 17.4 101690 66
2003-09-18 07:04 51°20.61 3°0.04 6.5 70 17.4 101700 66
2003-09-18 07:05 51°20.7 3°0.4 6.8 80 17.4 101700 66
2003-09-18 07:06 51°20.79 3°0.75 5.7 70 17.4 101700 67
2003-09-18 07:07 51°20.88 3°1.1 7.1 73 17.4 101700 67
2003-09-18 07:08 51°20.97 3°1.46 6.6 69 17.4 101700 65
2003-09-18 07:09 51°21.05 3°1.81 6.1 71 17.5 101700 67
2003-09-18 07:10 51°21.14 3°2.17 6.3 67 17.5 101700 67
2003-09-18 07:11 51°21.22 3°2.53 6.1 76 17.5 101700 66
2003-09-18 07:12 51°21.31 3°2.88 7.8 58 17.5 101700 67
2003-09-18 07:13 51°21.39 3°3.24 7.4 66 17.5 101710 66
2003-09-18 07:14 51°21.47 3°3.59 6.8 74 17.5 101710 65
2003-09-18 07:15 51°21.56 3°3.95 7.9 61 17.5 101710 64
2003-09-18 07:16 51°21.64 3°4.3 6.4 73 17.5 101700 66
2003-09-18 07:17 51°21.72 3°4.65 6.9 68 17.5 101700 66
2003-09-18 07:18 51°21.81 3°5 7.2 59 17.4 101710 66
2003-09-18 07:19 51°21.89 3°5.35 7.6 62 17.4 101710 67
2003-09-18 07:20 51°21.97 3°5.7 7 63 17.3 101700 67
2003-09-18 07:21 51°22.05 3°6.05 6.8 72 17.2 101710 67
2003-09-18 07:22 51°22.12 3°6.4 7.5 65 17.2 101710 67
2003-09-18 07:23 51°22.19 3°6.75 7.7 62 17.4 101710 69
2003-09-18 07:24 51°22.26 3°7.1 8 65 17.5 101710 68
2003-09-18 07:25 51°22.33 3°7.45 6.5 71 17.2 101710 68
2003-09-18 07:26 51°22.4 3°7.8 6.8 75 17.1 101710 68
2003-09-18 07:27 51°22.48 3°8.15 7.1 71 17.2 101700 68
2003-09-18 07:28 51°22.54 3°8.48 7.2 82 17.2 101710 66
2003-09-18 07:29 51°22.6 3°8.76 8.2 87 17.4 101720 67
2003-09-18 07:30 51°22.64 3°8.99 6.6 104 17.5 101710 66
2003-09-18 07:31 51°22.68 3°9.12 5.5 119 17.5 101720 67
2003-09-18 07:32 51°22.71 3°9.21 6.5 119 17.6 101720 66
2003-09-18 07:33 51°22.72 3°9.3 7.3 104 17.7 101710 66
2003-09-18 07:34 51°22.73 3°9.4 8.4 93 17.7 101710 67
2003-09-18 07:35 51°22.71 3°9.48 6.2 52 17.7 101710 66
2003-09-18 07:36 51°22.72 3°9.49 7.4 53 17.6 101700 64
2003-09-18 07:37 51°22.72 3°9.51 7.4 48 17.7 101710 66
2003-09-18 07:38 51°22.72 3°9.53 7.4 46 17.7 101710 68
2003-09-18 07:39 51°22.72 3°9.54 8.1 52 17.7 101710 66
2003-09-18 07:40 51°22.72 3°9.56 7.2 48 17.7 101710 65
2003-09-18 07:41 51°22.72 3°9.57 6.9 34 17.6 101710 65
2003-09-18 07:42 51°22.72 3°9.59 7.6 29 17.7 101710 66
2003-09-18 07:43 51°22.71 3°9.6 7.7 19 17.7 101710 66
2003-09-18 07:44 51°22.71 3°9.6 7.4 7 17.7 101710 65
2003-09-18 07:45 51°22.7 3°9.59 7.6 349 17.8 101710 65
2003-09-18 07:46 51°22.7 3°9.57 6.1 324 17.9 101710 66
2003-09-18 07:47 51°22.7 3°9.54 7.2 228 17.9 101710 65
2003-09-18 07:48 51°22.71 3°9.51 7 313 18 101710 65
2003-09-18 07:49 51°22.72 3°9.49 7.3 228 17.9 101710 64
2003-09-18 07:50 51°22.73 3°9.47 7.6 320 18 101710 63
2003-09-18 07:51 51°22.73 3°9.45 7.2 322 18 101710 64
2003-09-18 07:52 51°22.74 3°9.43 7.1 324 18.1 101710 65
2003-09-18 07:53 51°22.74 3°9.41 8 316 18.2 101710 65
2003-09-18 07:54 51°22.74 3°9.39 8 320 18.1 101710 63
2003-09-18 07:55 51°22.75 3°9.36 6.8 321 18.1 101710 64
2003-09-18 07:56 51°22.75 3°9.33 6.8 329 18.2 101710 65
2003-09-18 07:57 51°22.75 3°9.3 6.9 331 18.3 101710 65
2003-09-18 07:58 51°22.75 3°9.27 7.9 320 18.2 101710 65
2003-09-18 07:59 51°22.75 3°9.24 7 313 18.2 101710 64
2003-09-18 08:00 51°22.76 3°9.2 7 301 18.3 101710 64
2003-09-18 08:01 51°22.76 3°9.15 7.8 301 18.2 101720 65
2003-09-18 08:02 51°22.77 3°9.11 8.2 297 18.3 101720 66
2003-09-18 08:03 51°22.83 3°8.98 6.9 293 18.3 101720 66
2003-09-18 08:04 51°22.92 3°8.78 7 302 18.3 101710 65
2003-09-18 08:05 51°23.01 3°8.58 6.7 295 18.3 101720 66
2003-09-18 08:06 51°23.14 3°8.41 5.7 299 18.3 101720 66
2003-09-18 08:07 51°23.31 3°8.31 3.4 287 18.3 101730 66
2003-09-18 08:08 51°23.51 3°8.27 3.9 300 18.3 101730 66
2003-09-18 08:09 51°23.74 3°8.24 3.7 301 18.3 101730 66
2003-09-18 08:10 51°23.97 3°8.16 6.4 307 18.4 101730 66
2003-09-18 08:11 51°24.13 3°7.95 7.4 303 18.4 101720 67
2003-09-18 08:12 51°24.22 3°7.74 10.3 43 18.4 101720 66
2003-09-18 08:13 51°24.24 3°7.55 9 328 18.5 101710 65
2003-09-18 08:14 51°24.23 3°7.39 9.3 335 18.5 101710 64
2003-09-18 08:15 51°24.2 3°7.22 10.1 340 18.6 101710 65
2003-09-18 08:16 51°24.15 3°6.97 10.6 323 18.7 101700 66
2003-09-18 08:17 51°24.23 3°6.84 2.7 212 18.6 101720 65
2003-09-18 08:18 51°24.28 3°6.94 5.5 112 18.7 101730 65
2003-09-18 08:19 51°24.29 3°7 7.2 121 18.8 101730 65
2003-09-18 08:20 51°24.3 3°7.01 5.9 110 18.7 101730 63
2003-09-18 08:21 51°24.3 3°7.03 6 114 18.8 101730 65
2003-09-18 08:22 51°24.31 3°7.04 6.9 119 18.8 101730 66
2003-09-18 08:23 51°24.32 3°7.05 7.5 103 18.8 101730 65
2003-09-18 08:24 51°24.29 3°7.08 7.8 44 18.8 101720 66
2003-09-18 08:25 51°24.29 3°7.07 8.6 35 18.7 101730 65
2003-09-18 08:26 51°24.28 3°7.05 6.8 22 18.7 101720 62
2003-09-18 08:27 51°24.27 3°7.03 6.3 16 18.8 101730 62
2003-09-18 08:28 51°24.27 3°7.01 6 17 18.9 101730 64
2003-09-18 08:29 51°24.28 3°7 7.6 24 18.9 101730 63
2003-09-18 08:30 51°24.29 3°6.99 7.3 30 18.9 101730 63
2003-09-18 08:31 51°24.3 3°6.98 7.8 56 18.9 101720 63
2003-09-18 08:32 51°24.31 3°6.97 7.2 81 18.8 101730 64
2003-09-18 08:33 51°24.32 3°6.96 8.1 83 18.8 101730 65
2003-09-18 08:34 51°24.33 3°6.96 7.3 85 18.7 101730 64
2003-09-18 08:35 51°24.34 3°6.96 5.6 72 18.8 101730 65
2003-09-18 08:36 51°24.34 3°6.96 6.3 59 18.8 101730 65
2003-09-18 08:37 51°24.34 3°6.95 7.6 53 18.8 101730 64
2003-09-18 08:38 51°24.34 3°6.94 7.4 47 18.8 101730 64
2003-09-18 08:39 51°24.34 3°6.93 7.1 34 18.8 101740 64
2003-09-18 08:40 51°24.34 3°6.91 6.9 13 18.9 101740 65
2003-09-18 08:41 51°24.34 3°6.89 7 359 18.9 101740 63
2003-09-18 08:42 51°24.35 3°6.86 7.1 332 19 101740 64
2003-09-18 08:43 51°24.35 3°6.82 7.2 310 19.1 101730 64
2003-09-18 08:44 51°24.37 3°6.77 6 298 19.1 101740 65
2003-09-18 08:45 51°24.39 3°6.71 8 298 19.1 101740 65
2003-09-18 08:46 51°24.45 3°6.63 5.1 216 19.1 101730 66
2003-09-18 08:47 51°24.56 3°6.65 3.2 220 19.1 101750 65
2003-09-18 08:48 51°24.69 3°6.72 2.4 217 19.1 101750 64
2003-09-18 08:49 51°24.85 3°6.82 1.8 226 19.1 101750 64
2003-09-18 08:50 51°25.02 3°6.93 2.4 230 19.1 101740 64
2003-09-18 08:51 51°25.2 3°7.04 1.5 217 19.2 101740 64
2003-09-18 08:52 51°25.37 3°7.15 1.4 235 19.3 101750 65
2003-09-18 08:53 51°25.56 3°7.28 1.3 263 19.2 101750 63
2003-09-18 08:54 51°25.75 3°7.41 1.2 246 19.3 101750 64
2003-09-18 08:55 51°25.96 3°7.55 1.2 286 19.4 101740 64
2003-09-18 08:56 51°26.16 3°7.7 0.4 286 19.4 101750 63
2003-09-18 08:57 51°26.37 3°7.84 1.8 261 19.5 101750 63
2003-09-18 08:58 51°26.58 3°7.98 0.6 316 19.5 101750 62
2003-09-18 08:59 51°26.78 3°8.14 0.8 255 19.5 101740 63
2003-09-18 09:00 51°26.99 3°8.28 0.7 190 19.6 101740 62
2003-09-18 09:01 51°27.2 3°8.43 0.7 236 19.6 101740 63
2003-09-18 09:02 51°27.4 3°8.58 0.5 226 19.7 101740 62
2003-09-18 09:03 51°27.61 3°8.73 0.7 251 19.7 101740 62
2003-09-18 09:04 51°27.82 3°8.88 0.2 228 19.9 101740 62
2003-09-18 09:05 51°27.98 3°8.98 3.4 234 20 101740 63
2003-09-18 09:06 51°28.1 3°9.02 4 176 19.9 101740 62
2003-09-18 09:07 51°28.14 3°9.05 7.8 141 19.9 101730 63
2003-09-18 09:08 51°28.16 3°9.06 8.1 134 19.7 101730 64
2003-09-18 09:09 51°28.18 3°9.06 8.4 131 19.6 101730 65
2003-09-18 09:10 51°28.19 3°9.07 8.2 123 19.5 101720 65
2003-09-18 09:11 51°28.21 3°9.07 7.5 116 19.4 101730 64
2003-09-18 09:12 51°28.22 3°9.08 8 116 19.4 101730 65
2003-09-18 09:13 51°28.23 3°9.08 7.9 113 19.4 101730 67
2003-09-18 09:14 51°28.24 3°9.08 8.3 108 19.4 101730 66
2003-09-18 09:15 51°28.26 3°9.09 7.4 110 19.4 101730 67
2003-09-18 09:16 51°28.27 3°9.09 7.5 101 19.3 101720 66
2003-09-18 09:17 51°28.28 3°9.09 8.3 110 19.3 101720 66
2003-09-18 09:18 51°28.29 3°9.11 8.9 120 19.3 101720 66
2003-09-18 09:19 51°28.34 3°9.18 5.4 229 19.3 101740 66
2003-09-18 09:20 51°28.41 3°9.1 9.5 230 19.4 101730 66
2003-09-18 09:21 51°28.38 3°8.99 12.1 33 19.4 101700 64
2003-09-18 09:22 51°28.3 3°9.02 10.7 44 19.4 101700 64
2003-09-18 09:23 51°28.2 3°9.08 10.9 40 19.3 101710 65
2003-09-18 09:24 51°28.16 3°9.1 7.6 67 19.3 101710 65
2003-09-18 09:25 51°28.16 3°9.11 7.4 74 19.3 101720 67
2003-09-18 09:26 51°28.17 3°9.12 9.2 91 19.3 101720 68
2003-09-18 09:27 51°28.17 3°9.12 8.8 84 19.2 101720 67
2003-09-18 09:28 51°28.18 3°9.13 8.1 81 19.3 101720 66
2003-09-18 09:29 51°28.18 3°9.14 7.6 82 19.3 101720 63
2003-09-18 09:30 51°28.19 3°9.15 7.3 74 19.4 101720 65
2003-09-18 09:31 51°28.18 3°9.16 8 67 19.4 101720 64
2003-09-18 09:32 51°28.18 3°9.16 8.2 65 19.4 101720 66
2003-09-18 09:33 51°28.17 3°9.17 7.3 57 19.3 101720 66
2003-09-18 09:34 51°28.17 3°9.18 8.2 53 19.3 101720 65
2003-09-18 09:35 51°28.16 3°9.18 7.9 52 19.3 101730 66
2003-09-18 09:36 51°28.16 3°9.19 7.5 57 19.3 101720 63
2003-09-18 09:37 51°28.15 3°9.19 8.8 50 19.3 101720 65
2003-09-18 09:38 51°28.12 3°9.16 8.9 353 19.3 101720 65
2003-09-18 09:39 51°28.12 3°9.05 9.4 310 19.5 101720 64
2003-09-18 09:40 51°28.15 3°8.88 9.5 227 19.5 101720 64
2003-09-18 09:41 51°28.17 3°8.71 8.6 316 19.6 101720 64
2003-09-18 09:42 51°28.2 3°8.54 9.3 314 19.6 101720 65
2003-09-18 09:43 51°28.22 3°8.37 8.5 314 19.7 101720 64
2003-09-18 09:44 51°28.25 3°8.2 8.3 309 19.7 101720 65
2003-09-18 09:45 51°28.27 3°8.02 8 310 19.7 101720 65
2003-09-18 09:46 51°28.3 3°7.85 8.7 315 19.7 101720 66
2003-09-18 09:47 51°28.33 3°7.67 9.6 307 19.7 101720 65
2003-09-18 09:48 51°28.35 3°7.5 8.4 227 19.7 101720 64
2003-09-18 09:49 51°28.38 3°7.33 9.3 313 19.7 101720 64
2003-09-18 09:50 51°28.4 3°7.16 9.6 227 19.8 101730 64
2003-09-18 09:51 51°28.42 3°6.99 8.4 229 19.8 101720 65
2003-09-18 09:52 51°28.45 3°6.81 9.4 315 19.8 101730 65
2003-09-18 09:53 51°28.47 3°6.64 9.2 227 19.8 101720 65
2003-09-18 09:54 51°28.49 3°6.47 9.1 312 19.8 101730 65
2003-09-18 09:55 51°28.51 3°6.3 8.7 319 19.8 101720 65
2003-09-18 09:56 51°28.54 3°6.13 8.8 43 19.8 101720 65
2003-09-18 09:57 51°28.56 3°5.96 9.3 39 19.8 101720 65
2003-09-18 09:58 51°28.58 3°5.79 11.3 228 19.8 101720 65
2003-09-18 09:59 51°28.6 3°5.62 9.9 316 19.7 101720 64
2003-09-18 10:00 51°28.62 3°5.45 10.5 323 19.7 101720 65
2003-09-18 10:01 51°28.62 3°5.28 9.4 325 19.7 101720 65
2003-09-18 10:02 51°28.61 3°5.11 9.8 331 19.7 101720 65
2003-09-18 10:03 51°28.6 3°4.94 10.4 328 19.7 101720 66
2003-09-18 10:04 51°28.59 3°4.77 9.5 332 19.6 101720 65
2003-09-18 10:05 51°28.57 3°4.6 9.4 335 19.6 101720 66
2003-09-18 10:06 51°28.56 3°4.43 9.5 334 19.6 101720 66
2003-09-18 10:07 51°28.54 3°4.26 8.8 331 19.6 101720 66
2003-09-18 10:08 51°28.53 3°4.09 9.4 337 19.6 101720 66
2003-09-18 10:09 51°28.49 3°3.93 9.7 337 19.6 101720 67
2003-09-18 10:10 51°28.5 3°3.79 7.3 275 19.6 101720 68
2003-09-18 10:11 51°28.56 3°3.72 4.4 256 19.5 101730 68
2003-09-18 10:12 51°28.61 3°3.68 4.8 239 19.4 101730 68
2003-09-18 10:13 51°28.65 3°3.68 3.2 183 19.5 101730 69
2003-09-18 10:14 51°28.68 3°3.71 5.8 158 19.5 101730 68
2003-09-18 10:15 51°28.69 3°3.74 6.1 148 19.5 101730 69
2003-09-18 10:16 51°28.69 3°3.73 6.7 225 19.5 101730 70
2003-09-18 10:17 51°28.7 3°3.72 6.5 136 19.4 101730 69
2003-09-18 10:18 51°28.7 3°3.71 6 121 19.5 101720 69
2003-09-18 10:19 51°28.7 3°3.7 6.1 119 19.5 101730 70
2003-09-18 10:20 51°28.69 3°3.7 6.7 107 19.5 101720 70
2003-09-18 10:21 51°28.69 3°3.69 6.3 99 19.5 101720 69
2003-09-18 10:22 51°28.69 3°3.69 6.7 106 19.5 101720 69
2003-09-18 10:23 51°28.68 3°3.71 6.6 117 19.5 101720 69
2003-09-18 10:24 51°28.67 3°3.72 6.8 121 19.5 101730 69
2003-09-18 10:25 51°28.67 3°3.73 6.4 115 19.5 101720 69
2003-09-18 10:26 51°28.66 3°3.74 5.7 129 19.5 101720 69
2003-09-18 10:27 51°28.66 3°3.75 6.5 117 19.5 101720 68
2003-09-18 10:28 51°28.65 3°3.75 5.9 108 19.6 101720 69
2003-09-18 10:29 51°28.64 3°3.75 7.3 103 19.6 101730 68
2003-09-18 10:30 51°28.64 3°3.75 6.1 103 19.6 101720 68
2003-09-18 10:31 51°28.63 3°3.76 6.7 96 19.6 101730 68
2003-09-18 10:32 51°28.62 3°3.76 6.8 89 19.6 101720 69
2003-09-18 10:33 51°28.61 3°3.76 7.3 81 19.6 101720 68
2003-09-18 10:34 51°28.61 3°3.76 6.6 93 19.6 101730 67
2003-09-18 10:35 51°28.6 3°3.76 7.7 88 19.7 101720 69
2003-09-18 10:36 51°28.59 3°3.75 6.6 93 19.6 101730 67
2003-09-18 10:37 51°28.59 3°3.75 7.8 94 19.6 101720 67
2003-09-18 10:38 51°28.58 3°3.75 6.6 93 19.6 101730 68
2003-09-18 10:39 51°28.57 3°3.76 6.8 100 19.6 101720 68
2003-09-18 10:40 51°28.55 3°3.76 6.1 107 19.7 101720 69
2003-09-18 10:41 51°28.54 3°3.77 6.6 113 19.7 101720 69
2003-09-18 10:42 51°28.53 3°3.78 6.4 111 20 101730 69
2003-09-18 10:43 51°28.52 3°3.8 6 136 19.7 101730 69
2003-09-18 10:44 51°28.51 3°3.82 5.9 146 19.7 101730 68
2003-09-18 10:45 51°28.51 3°3.85 5.3 159 19.7 101730 69
2003-09-18 10:46 51°28.52 3°3.87 3 189 19.6 101730 69
2003-09-18 10:47 51°28.53 3°3.88 4.9 206 19.6 101730 70
2003-09-18 10:48 51°28.54 3°3.88 5.1 219 19.5 101730 68
2003-09-18 10:49 51°28.56 3°3.88 5.1 231 19.5 101730 70
2003-09-18 10:50 51°28.57 3°3.88 5.7 240 19.5 101730 69
2003-09-18 10:51 51°28.59 3°3.88 5.4 241 19.5 101730 69
2003-09-18 10:52 51°28.61 3°3.87 6.2 244 19.4 101730 70
2003-09-18 10:53 51°28.63 3°3.86 4.8 239 19.6 101730 71
2003-09-18 10:54 51°28.65 3°3.85 5.1 244 19.5 101730 70
2003-09-18 10:55 51°28.67 3°3.85 6.3 241 19.5 101730 70
2003-09-18 10:56 51°28.69 3°3.84 5.5 246 19.5 101730 70
2003-09-18 10:57 51°28.71 3°3.83 4.9 250 19.5 101730 70
2003-09-18 10:58 51°28.72 3°3.82 5 247 19.5 101730 71
2003-09-18 10:59 51°28.74 3°3.81 5 252 19.5 101720 71
2003-09-18 11:00 51°28.76 3°3.8 4 256 19.6 101730 72
2003-09-18 11:01 51°28.79 3°3.78 5.1 257 19.4 101720 71
2003-09-18 11:02 51°28.81 3°3.77 4.7 255 19.5 101720 72
2003-09-18 11:03 51°28.84 3°3.76 7.1 240 19.4 101720 71
2003-09-18 11:04 51°28.86 3°3.77 6.1 222 19.4 101720 72
2003-09-18 11:05 51°28.87 3°3.79 4.4 184 19.4 101720 72
2003-09-18 11:06 51°28.86 3°3.84 7.2 96 19.5 101720 72
2003-09-18 11:07 51°28.78 3°3.84 10.7 23 19.5 101710 72
2003-09-18 11:08 51°28.63 3°3.66 13.3 19 19.5 101690 73
2003-09-18 11:09 51°28.46 3°3.4 13.6 15 19.5 101690 73
2003-09-18 11:10 51°28.28 3°3.15 12.9 16 19.5 101690 74
2003-09-18 11:11 51°28.1 3°2.89 13.2 18 19.5 101690 74
2003-09-18 11:12 51°27.92 3°2.64 13.8 16 19.5 101700 75
2003-09-18 11:13 51°27.74 3°2.39 14.4 19 19.5 101690 76
2003-09-18 11:14 51°27.56 3°2.14 13.4 16 19.5 101690 76
2003-09-18 11:15 51°27.38 3°1.88 14.7 17 19.5 101690 77
2003-09-18 11:16 51°27.2 3°1.63 14.9 24 19.5 101680 77
2003-09-18 11:17 51°27.02 3°1.38 14.1 25 19.5 101680 78
2003-09-18 11:18 51°26.82 3°1.1 14.8 26 19.5 101680 79
2003-09-18 11:19 51°26.64 3°0.85 14.3 26 19.4 101690 80
2003-09-18 11:20 51°26.46 3°0.61 13.8 26 19.4 101680 81
2003-09-18 11:21 51°26.27 3°0.39 14.9 30 19.5 101690 81
2003-09-18 11:22 51°26.07 3°0.19 12.9 34 19.2 101680 82
2003-09-18 11:23 51°25.83 3°0.11 12.6 47 19 101690 83
2003-09-18 11:24 51°25.6 3°0.06 11.5 41 18.9 101690 84
2003-09-18 11:25 51°25.37 3°0.01 12.3 46 18.8 101690 85
2003-09-18 11:26 51°25.14 2°59.95 12.1 46 18.7 101690 85
2003-09-18 11:27 51°24.91 2°59.89 11.3 37 18.7 101690 86
2003-09-18 11:28 51°24.68 2°59.83 11.4 44 18.6 101690 86
2003-09-18 11:29 51°24.45 2°59.83 11.3 51 18.6 101690 86
2003-09-18 11:30 51°24.22 2°59.86 11.6 53 18.6 101700 87
2003-09-18 11:31 51°23.98 2°59.87 12.5 53 18.6 101690 87
2003-09-18 11:32 51°23.75 2°59.86 11.8 56 18.6 101680 87
2003-09-18 11:33 51°23.53 2°59.86 9.6 55 18.6 101690 87
2003-09-18 11:34 51°23.4 2°59.84 8.2 70 18.6 101690 87
2003-09-18 11:35 51°23.3 2°59.85 6.5 116 18.5 101700 87
2003-09-18 11:36 51°23.26 2°59.95 5 164 18.6 101710 87
2003-09-18 11:37 51°23.25 2°59.97 5.6 201 18.7 101710 88
2003-09-18 11:38 51°23.25 2°59.98 6.6 216 18.8 101710 87
2003-09-18 11:39 51°23.24 2°59.99 7.3 222 18.7 101700 87
2003-09-18 11:40 51°23.24 3°0 6.4 220 18.6 101700 87
2003-09-18 11:41 51°23.24 3°0 7.6 229 18.6 101700 87
2003-09-18 11:42 51°23.24 3°0.01 6.2 225 18.6 101700 87
2003-09-18 11:43 51°23.24 3°0.02 6 235 18.6 101700 87
2003-09-18 11:44 51°23.24 3°0.02 6.2 241 18.6 101700 87
2003-09-18 11:45 51°23.24 3°0.03 6.3 249 18.6 101700 87
2003-09-18 11:46 51°23.24 3°0.02 6.8 247 18.6 101700 87
2003-09-18 11:47 51°23.24 3°0.02 5.5 250 18.6 101700 87
2003-09-18 11:48 51°23.24 3°0.02 6 249 18.5 101690 87
2003-09-18 11:49 51°23.24 3°0.01 9.7 267 18.5 101690 87
2003-09-18 11:50 51°23.24 3°0 6.9 264 18.6 101690 87
2003-09-18 11:51 51°23.23 3°0 7.8 263 18.5 101690 87
2003-09-18 11:52 51°23.23 2°59.99 8.7 274 18.6 101690 87
2003-09-18 11:53 51°23.22 2°59.98 7.9 279 18.6 101690 87
2003-09-18 11:54 51°23.22 2°59.97 8.8 273 18.6 101690 87
2003-09-18 11:55 51°23.21 2°59.97 8.4 262 18.6 101690 87
2003-09-18 11:56 51°23.21 2°59.97 10 264 18.5 101690 87
2003-09-18 11:57 51°23.21 2°59.96 9.7 262 18.5 101690 87
2003-09-18 11:58 51°23.21 2°59.95 8.8 268 18.5 101690 87
2003-09-18 11:59 51°23.22 2°59.94 7.1 272 18.5 101690 87
2003-09-18 12:00 51°23.23 2°59.93 8.4 274 18.6 101680 87
2003-09-18 12:01 51°23.23 2°59.92 8.7 269 18.6 101690 87
2003-09-18 12:02 51°23.24 2°59.91 7 261 18.5 101690 87
2003-09-18 12:03 51°23.25 2°59.9 8.7 265 18.5 101690 87
2003-09-18 12:04 51°23.26 2°59.89 6.2 258 18.5 101680 87
2003-09-18 12:05 51°23.27 2°59.88 6.9 293 18.5 101680 87
2003-09-18 12:06 51°23.29 2°59.8 8.7 360 18.5 101680 87
2003-09-18 12:07 51°23.22 2°59.63 11.8 28 18.6 101670 87
2003-09-18 12:08 51°23.09 2°59.45 12.3 28 18.6 101660 86
2003-09-18 12:09 51°22.92 2°59.21 13.7 25 18.6 101660 86
2003-09-18 12:10 51°22.73 2°58.96 14.2 26 18.6 101660 86
2003-09-18 12:11 51°22.55 2°58.71 13.8 25 18.6 101660 85
2003-09-18 12:12 51°22.37 2°58.46 13.6 24 18.7 101660 85
2003-09-18 12:13 51°22.19 2°58.21 14 26 18.7 101650 85
2003-09-18 12:14 51°22.01 2°57.97 14.3 27 18.7 101650 85
2003-09-18 12:15 51°21.82 2°57.72 13.7 27 18.7 101640 84
2003-09-18 12:16 51°21.64 2°57.47 13.7 22 18.7 101650 84
2003-09-18 12:17 51°21.46 2°57.22 13.8 24 18.7 101650 84
2003-09-18 12:18 51°21.28 2°56.97 12.1 23 18.8 101650 84
2003-09-18 12:19 51°21.1 2°56.72 14.1 28 18.8 101650 84
2003-09-18 12:20 51°20.92 2°56.47 13.6 25 18.8 101650 84
2003-09-18 12:21 51°20.74 2°56.21 12.5 23 18.8 101640 84
2003-09-18 12:22 51°20.56 2°55.95 14.7 27 18.8 101650 84
2003-09-18 12:23 51°20.39 2°55.69 13.8 25 18.8 101650 84
2003-09-18 12:24 51°20.21 2°55.43 13.8 24 18.9 101650 84
2003-09-18 12:25 51°20.03 2°55.18 12.9 25 18.8 101640 84
2003-09-18 12:26 51°19.85 2°54.92 13.3 22 18.8 101640 84
2003-09-18 12:27 51°19.67 2°54.66 13.8 25 18.8 101650 84
2003-09-18 12:28 51°19.49 2°54.41 13.8 26 18.8 101640 84
2003-09-18 12:29 51°19.32 2°54.15 13.9 26 18.8 101650 84
2003-09-18 12:30 51°19.13 2°53.89 13.5 28 18.8 101640 84
2003-09-18 12:31 51°18.95 2°53.63 11.8 24 18.8 101640 83
2003-09-18 12:32 51°18.77 2°53.38 12.7 26 18.8 101630 83
2003-09-18 12:33 51°18.59 2°53.12 12.1 25 18.8 101640 84
2003-09-18 12:34 51°18.42 2°52.86 13.3 25 18.8 101640 84
2003-09-18 12:35 51°18.23 2°52.64 11.8 34 18.8 101640 83
2003-09-18 12:36 51°17.99 2°52.53 12 36 18.8 101650 83
2003-09-18 12:37 51°17.76 2°52.43 12.7 39 18.7 101650 83
2003-09-18 12:38 51°17.53 2°52.37 9 36 18.6 101650 84
2003-09-18 12:39 51°17.29 2°52.39 8.2 52 18.6 101650 84
2003-09-18 12:40 51°17.09 2°52.56 6.2 56 18.6 101660 84
2003-09-18 12:41 51°16.9 2°52.76 7.4 51 18.6 101660 84
2003-09-18 12:42 51°16.69 2°52.93 8.6 43 18.6 101660 85
2003-09-18 12:43 51°16.49 2°53.1 7.7 42 18.6 101660 85
2003-09-18 12:44 51°16.28 2°53.27 7.6 47 18.6 101660 85
2003-09-18 12:45 51°16.08 2°53.45 8.5 58 18.6 101660 85
2003-09-18 12:46 51°15.88 2°53.62 7.6 53 18.6 101660 85
2003-09-18 12:47 51°15.68 2°53.8 8.3 60 18.6 101660 85
2003-09-18 12:48 51°15.49 2°53.98 7.2 55 18.6 101660 85
2003-09-18 12:49 51°15.29 2°54.16 7.7 55 18.6 101650 85
2003-09-18 12:50 51°15.09 2°54.33 7.7 61 18.6 101650 85
2003-09-18 12:51 51°14.9 2°54.5 7 52 18.6 101650 85
2003-09-18 12:52 51°14.71 2°54.67 6.9 49 18.6 101650 85
2003-09-18 12:53 51°14.54 2°54.87 6.3 49 18.7 101650 85
2003-09-18 12:54 51°14.39 2°55.09 6.7 41 18.7 101650 85
2003-09-18 12:55 51°14.24 2°55.3 5.2 48 18.7 101660 85
2003-09-18 12:56 51°14.11 2°55.44 4.7 78 18.8 101660 86
2003-09-18 12:57 51°14.01 2°55.51 2.7 31 18.8 101660 85
2003-09-18 12:58 51°13.93 2°55.57 0.9 95 18.9 101650 85
2003-09-18 12:59 51°13.86 2°55.61 1.4 48 19 101650 84
2003-09-18 13:00 51°13.8 2°55.66 1.2 77 19.2 101650 84
2003-09-18 13:01 51°13.75 2°55.72 2.4 138 19.3 101650 83
2003-09-18 13:02 51°13.71 2°55.79 2.8 174 19.5 101650 83
2003-09-18 13:03 51°13.67 2°55.87 2.3 162 19.5 101650 82
2003-09-18 13:04 51°13.64 2°55.95 2.4 226 19.6 101640 82
2003-09-18 13:05 51°13.62 2°56.02 2.8 212 19.7 101640 81
2003-09-18 13:06 51°13.61 2°56.08 3.4 209 19.7 101640 80
2003-09-18 13:07 51°13.6 2°56.1 2.7 184 19.8 101640 80
2003-09-18 13:08 51°13.6 2°56.11 2.9 198 20 101640 80
2003-09-18 13:09 51°13.6 2°56.11 2.5 182 20.1 101640 79
2003-09-18 13:10 51°13.6 2°56.11 3.1 175 20.3 101640 78